Location: ????????
(38.4362°N, 22.8767°E)
Time: 12:19:52
(UTC+00:00)

CZ-2C R/B - Pass Details

Date: 23 April 2024
Orbit: 782 x 869 km, 98.3° (Epoch: 19 May)

Event Time Altitude Azimuth Distance (km) Brightness Sun altitude
Exits shadow 00:18:45 47° 64° (ENE) 1,084 3.4 -32.6°
Drops below altitude 10° 00:23:37 10° 360° (N) 2,406 5.7 -32.1°
Sets 00:26:00 0° 354° (N) 3,329 6.5 -31.8°
